This is the latest recevied weather packets stored in our database for station/object EA7AIS-10. If no packets are shown the sender has not sent any weather packets the latest 10 day(s).
| Time | Temp. | Humidity | Pressure | Rain* | Wind** | Luminosity | Snow |
|---|---|---|---|---|---|---|---|
| 1777693578 | 17.78° C | 88% | 1015.6 hPa | - | - | - | - |
| 1777692679 | 17.78° C | 91% | 1015.8 hPa | - | - | - | - |
| 1777691777 | 17.78° C | 93% | 1015.9 hPa | - | - | - | - |
| 1777690877 | 18.33° C | 92% | 1016 hPa | - | - | - | - |
| 1777689977 | 18.33° C | 91% | 1016 hPa | - | - | - | - |
| 1777689077 | 18.33° C | 92% | 1016.1 hPa | - | - | - | - |
| 1777688177 | 18.33° C | 88% | 1016.1 hPa | - | - | - | - |
| 1777687279 | 18.33° C | 86% | 1016.1 hPa | - | - | - | - |
| 1777686377 | 18.33° C | 89% | 1016 hPa | - | - | - | - |
| 1777685477 | 17.78° C | 90% | 1016.4 hPa | - | - | - | - |
| 1777684577 | 18.33° C | 93% | 1016.5 hPa | - | - | - | - |
| 1777683677 | 18.33° C | 90% | 1016.9 hPa | - | - | - | - |
| 1777682777 | 18.33° C | 92% | 1017.1 hPa | - | - | - | - |
| 1777681879 | 18.33° C | 91% | 1017.2 hPa | - | - | - | - |
| 1777680976 | 18.33° C | 92% | 1017.1 hPa | - | - | - | - |
| 1777680076 | 18.33° C | 90% | 1017.2 hPa | - | - | - | - |
| 1777679176 | 18.33° C | 90% | 1017.3 hPa | - | - | - | - |
| 1777678276 | 18.33° C | 90% | 1017.3 hPa | - | - | - | - |
| 1777677376 | 17.78° C | 89% | 1017.5 hPa | - | - | - | - |
| 1777676479 | 17.78° C | 89% | 1017.3 hPa | - | - | - | - |
| 1777675575 | 17.78° C | 88% | 1017.3 hPa | - | - | - | - |
| 1777674675 | 18.33° C | 85% | 1017.1 hPa | - | - | - | - |
| 1777673775 | 17.78° C | 84% | 1017.3 hPa | - | - | - | - |
| 1777672878 | 18.33° C | 82% | 1017.4 hPa | - | - | - | - |
| 1777671970 | 18.33° C | 83% | 1017.3 hPa | - | - | - | - |
* Rain since midnight (hover to see other rain measurements)
** Current wind speed in m/s (hover to see current wind gust speed)